FW4608 Weather Reports


Display with metric or nautical units.
time (UTC)temp
F
wind
direction
speed
MPH
gust
MPH
rain 1hr
in
rain 24hr
in
rain mn
in
humidity
%
barometer
mb
20260901234005 83 290 0.0 1.0 0.00 0.01 0.01 84 1016.4
20260901233505 83 317 0.0 1.0 0.00 0.01 0.01 84 1016.3
20260901233003 83 317 0.0 1.0 0.00 0.01 0.01 83 1016.2
20260901232503 83 318 0.0 2.0 0.00 0.01 0.01 83 1016.2
20260901232006 84 321 0.0 2.0 0.00 0.01 0.01 83 1016.3
20260901231503 84 217 0.0 2.0 0.00 0.01 0.01 82 1016.3
20260901231001 84 6 0.0 3.0 0.00 0.01 0.01 82 1016.2
20260901230501 84 271 0.0 3.0 0.00 0.01 0.01 81 1016.3
20260901230002 85 81 0.0 3.0 0.00 0.01 0.01 81 1016.3
20260901225559 85 276 0.0 2.0 0.00 0.01 0.01 80 1016.2
20260901225059 85 344 0.0 2.0 0.00 0.01 0.01 79 1016.1
20260901224600 85 233 0.0 1.0 0.00 0.01 0.01 79 1016.1
20260901224058 86 308 0.0 1.0 0.00 0.01 0.01 78 1016.0
20260901223559 86 218 0.0 1.0 0.00 0.01 0.01 78 1016.0
20260901223056 86 310 0.0 2.0 0.00 0.01 0.01 77 1016.1
20260901222555 87 317 0.0 2.0 0.00 0.01 0.01 76 1016.1
20260901222055 87 302 0.0 1.0 0.00 0.01 0.01 78 1016.1
20260901221555 87 295 0.0 2.0 0.00 0.01 0.01 78 1015.9
20260901221053 87 309 0.0 2.0 0.00 0.01 0.01 76 1016.1
20260901220654 88 226 0.0 2.0 0.00 0.01 0.01 75 1016.0
20260901220054 89 306 0.0 2.0 0.00 0.01 0.01 75 1016.0
20260901215552 88 5 0.0 4.0 0.00 0.01 0.01 77 1015.8
20260901215050 88 293 0.0 4.0 0.00 0.01 0.01 78 1016.0
20260901214553 88 27 0.0 4.0 0.00 0.01 0.01 78 1016.1
20260901214050 89 70 0.0 4.0 0.00 0.01 0.01 77 1016.1
20260901213553 90 330 1.0 4.0 0.00 0.01 0.01 75 1016.0
20260901213049 90 252 0.0 2.0 0.00 0.01 0.01 77 1016.0
20260901212547 89 157 0.0 2.0 0.00 0.01 0.01 77 1016.1
20260901212049 88 316 0.0 3.0 0.00 0.01 0.01 77 1016.0
20260901211546 88 92 0.0 3.0 0.00 0.01 0.01 77 1016.0
20260901211045 89 323 0.0 3.0 0.00 0.01 0.01 76 1015.9
20260901210545 89 328 0.0 2.0 0.00 0.01 0.01 75 1016.0
20260901210046 90 323 0.0 3.0 0.00 0.01 0.01 75 1015.9
20260901205544 90 290 0.0 3.0 0.00 0.01 0.01 74 1016.1
20260901205043 90 267 0.0 3.0 0.00 0.01 0.01 73 1016.1
20260901204543 91 311 0.0 3.0 0.00 0.01 0.01 74 1016.0
20260901204043 91 96 0.0 2.0 0.00 0.01 0.01 75 1016.1
20260901203541 90 292 0.0 2.0 0.00 0.01 0.01 74 1016.2
20260901203043 89 329 0.0 3.0 0.00 0.01 0.01 76 1016.2
20260901202543 88 151 0.0 3.0 0.00 0.01 0.01 76 1016.3
20260901202043 88 247 0.0 4.0 0.00 0.01 0.01 77 1016.4
20260901201538 88 248 0.0 6.0 0.00 0.01 0.01 77 1016.5
20260901201039 88 99 1.0 4.0 0.00 0.01 0.01 76 1016.6
20260901200538 88 300 0.0 4.0 0.00 0.01 0.01 79 1016.5
20260901200057 88 153 0.0 4.0 0.00 0.01 0.01 77 1016.6
20260901195536 88 90 0.0 3.0 0.00 0.01 0.01 76 1016.6
20260901195035 88 243 0.0 3.0 0.00 0.01 0.01 78 1016.6
20260901194544 87 309 0.0 3.0 0.00 0.01 0.01 77 1016.7
20260901194036 88 101 0.0 2.0 0.00 0.01 0.01 79 1016.6
20260901193534 88 269 0.0 3.0 0.00 0.01 0.01 78 1016.6
20260901193033 88 258 0.0 2.0 0.00 0.01 0.01 78 1016.5
20260901192532 88 293 0.0 3.0 0.00 0.01 0.01 78 1016.4
20260901192031 88 278 0.0 4.0 0.00 0.01 0.01 76 1016.4
20260901191539 88 243 0.0 3.0 0.00 0.01 0.01 77 1016.4
20260901191029 89 92 0.0 2.0 0.00 0.01 0.01 75 1016.3
20260901190530 89 117 0.0 3.0 0.00 0.01 0.01 76 1016.3
20260901190039 89 52 0.0 3.0 0.00 0.01 0.01 74 1016.3
20260901185531 90 305 0.0 3.0 0.00 0.01 0.01 73 1016.3
20260901185029 91 116 0.0 3.0 0.00 0.01 0.01 73 1016.2
20260901184531 92 293 0.0 4.0 0.00 0.01 0.01 71 1016.3
20260901184027 92 319 1.0 4.0 0.00 0.01 0.01 74 1016.3
20260901183525 91 306 0.0 3.0 0.00 0.01 0.01 73 1016.4
20260901183025 91 349 0.0 3.0 0.00 0.01 0.01 75 1016.6
20260901182524 90 185 0.0 7.0 0.00 0.01 0.01 75 1016.6
20260901182024 91 19 1.0 7.0 0.00 0.01 0.01 73 1016.7
20260901181528 91 302 0.0 3.0 0.00 0.01 0.01 73 1016.7
20260901181023 91 245 0.0 5.0 0.00 0.01 0.01 73 1016.8
20260901180522 90 315 0.0 5.0 0.00 0.01 0.01 75 1016.9
20260901180022 89 111 0.0 2.0 0.00 0.01 0.01 74 1016.9
20260901175525 89 320 0.0 4.0 0.00 0.01 0.01 74 1017.0
20260901175020 90 255 0.0 3.0 0.00 0.01 0.01 73 1016.9
20260901174534 91 320 0.0 3.0 0.00 0.01 0.01 73 1017.1
20260901174026 92 277 0.0 3.0 0.00 0.01 0.01 69 1017.2
20260901173517 93 161 0.0 3.0 0.00 0.01 0.01 72 1017.1
20260901173023 92 240 0.0 3.0 0.00 0.01 0.01 73 1017.1
20260901172513 93 6 0.0 3.0 0.00 0.01 0.01 73 1017.2
20260901172011 92 134 0.0 3.0 0.00 0.01 0.01 73 1017.2
20260901171509 92 277 0.0 4.0 0.00 0.01 0.01 72 1017.4
20260901171007 93 129 1.0 5.0 0.00 0.01 0.01 70 1017.3
20260901170509 92 342 0.0 4.0 0.00 0.01 0.01 75 1017.5
20260901170005 92 195 0.0 4.0 0.00 0.01 0.01 71 1017.5
20260901165505 92 95 0.0 4.0 0.00 0.01 0.01 73 1017.6
20260901165003 92 108 0.0 3.0 0.00 0.01 0.01 75 1017.7
20260901164601 91 162 0.0 3.0 0.00 0.01 0.01 76 1017.7
20260901164058 90 293 0.0 3.0 0.00 0.01 0.01 77 1017.7
20260901163557 89 148 0.0 2.0 0.00 0.01 0.01 79 1017.7
20260901163059 90 255 0.0 3.0 0.00 0.01 0.01 77 1017.8
20260901162553 89 130 0.0 3.0 0.00 0.01 0.01 77 1017.7
20260901162052 89 176 0.0 2.0 0.01 0.01 0.01 80 1017.7
20260901161553 88 319 0.0 2.0 0.01 0.01 0.01 80 1017.7
20260901161051 87 129 0.0 2.0 0.01 0.01 0.01 81 1017.7
20260901160555 87 53 0.0 3.0 0.01 0.01 0.01 81 1017.8
20260901160055 86 319 0.0 3.0 0.01 0.01 0.01 81 1017.8
20260901155550 86 334 0.0 3.0 0.01 0.01 0.01 83 1017.8
20260901155050 85 323 0.0 2.0 0.01 0.01 0.01 84 1017.9
20260901154550 85 257 0.0 1.0 0.01 0.01 0.01 84 1017.8
20260901154049 85 198 0.0 0.0 0.01 0.01 0.01 85 1017.8
20260901153549 85 170 0.0 1.0 0.01 0.01 0.01 85 1018.0
20260901153047 86 151 0.0 1.0 0.01 0.01 0.01 83 1018.1
20260901152545 87 300 0.0 2.0 0.01 0.01 0.01 82 1018.0
20260901152044 89 63 0.0 3.0 0.00 0.00 0.00 81 1018.1
20260901151544 89 172 0.0 3.0 0.00 0.00 0.00 80 1017.9
20260901151043 88 260 0.0 1.0 0.00 0.00 0.00 81 1017.9
20260901150541 88 276 0.0 1.0 0.00 0.00 0.00 78 1017.9
20260901150041 88 150 0.0 2.0 0.00 0.00 0.00 79 1017.9
20260901145542 89 169 0.0 2.0 0.00 0.00 0.00 78 1017.8
20260901145039 88 321 0.0 2.0 0.00 0.00 0.00 79 1017.8
20260901144537 88 338 0.0 2.0 0.00 0.00 0.00 81 1017.7
20260901144036 87 212 0.0 2.0 0.00 0.00 0.00 81 1017.7
20260901143534 87 169 0.0 1.0 0.00 0.00 0.00 83 1017.7
20260901143132 86 214 0.0 1.0 0.00 0.00 0.00 84 1017.7
20260901142530 86 76 0.0 2.0 0.00 0.00 0.00 83 1017.6
20260901142027 87 92 0.0 2.0 0.00 0.00 0.00 84 1017.6
20260901141526 86 325 0.0 2.0 0.00 0.00 0.00 85 1017.7
20260901141025 85 318 0.0 1.0 0.00 0.00 0.00 86 1017.6
20260901140522 84 113 0.0 1.0 0.00 0.00 0.00 86 1017.7
20260901140021 83 122 0.0 3.0 0.00 0.00 0.00 88 1017.7
20260901135525 83 124 0.0 3.0 0.00 0.00 0.00 87 1017.7
20260901135018 83 185 0.0 1.0 0.00 0.00 0.00 88 1017.7
20260901134517 82 266 0.0 1.0 0.00 0.00 0.00 89 1017.6
20260901134015 82 264 0.0 1.0 0.00 0.00 0.00 90 1017.7
20260901133515 81 183 0.0 1.0 0.00 0.00 0.00 90 1017.7
20260901133018 81 173 0.0 3.0 0.00 0.00 0.00 91 1017.7
20260901132510 80 325 0.0 3.0 0.00 0.00 0.00 92 1017.6
20260901132010 80 172 0.0 1.0 0.00 0.00 0.00 94 1017.7
20260901131507 80 253 0.0 1.0 0.00 0.00 0.00 95 1017.6
20260901131006 79 253 0.0 1.0 0.00 0.00 0.00 95 1017.7
20260901130506 79 312 0.0 0.0 0.00 0.00 0.00 95 1017.7
20260901130004 79 312 0.0 1.0 0.00 0.00 0.00 95 1017.7
20260901125503 79 312 0.0 1.0 0.00 0.00 0.00 95 1017.8
20260901125001 79 332 0.0 1.0 0.00 0.00 0.00 95 1017.7
20260901124501 78 290 0.0 1.0 0.00 0.00 0.00 95 1017.6
20260901124059 78 290 0.0 1.0 0.00 0.00 0.00 95 1017.7
20260901123559 78 290 0.0 0.0 0.00 0.00 0.00 95 1017.6
20260901123157 78 290 0.0 0.0 0.00 0.00 0.00 95 1017.4
20260901122556 78 294 0.0 0.0 0.00 0.00 0.00 95 1017.5
20260901122054 78 294 0.0 0.0 0.00 0.00 0.00 95 1017.5
20260901121604 78 294 0.0 0.0 0.00 0.00 0.00 95 1017.4
20260901121052 77 294 0.0 0.0 0.00 0.00 0.00 95 1017.3
20260901120552 77 294 0.0 0.0 0.00 0.00 0.00 95 1017.3
20260901120055 77 326 0.0 0.0 0.00 0.00 0.00 95 1017.3
20260901115550 77 326 0.0 1.0 0.00 0.00 0.00 95 1017.1
20260901115049 77 326 0.0 1.0 0.00 0.00 0.00 95 1017.2
20260901114548 77 326 0.0 0.0 0.00 0.00 0.00 95 1017.1
20260901114047 77 326 0.0 0.0 0.00 0.00 0.00 95 1017.0
20260901113547 77 326 0.0 0.0 0.00 0.00 0.00 95 1017.0
20260901113146 76 326 0.0 0.0 0.00 0.00 0.00 95 1017.0
20260901112545 76 326 0.0 0.0 0.00 0.00 0.00 95 1016.8
20260901112043 76 326 0.0 0.0 0.00 0.00 0.00 95 1016.7
20260901111544 76 326 0.0 0.0 0.00 0.00 0.00 95 1016.7
20260901111045 76 326 0.0 0.0 0.00 0.00 0.00 95 1016.6
20260901110541 76 326 0.0 0.0 0.00 0.00 0.00 95 1016.6
20260901110041 76 326 0.0 0.0 0.00 0.00 0.00 95 1016.4
20260901105540 76 326 0.0 0.0 0.00 0.00 0.00 95 1016.4
20260901105038 76 326 0.0 0.0 0.00 0.00 0.00 95 1016.4
20260901104553 76 326 0.0 0.0 0.00 0.00 0.00 95 1016.3
20260901104038 76 326 0.0 0.0 0.00 0.00 0.00 95 1016.3
20260901103542 76 326 0.0 0.0 0.00 0.00 0.00 95 1016.3
20260901103036 76 326 0.0 0.0 0.00 0.00 0.00 95 1016.4
20260901102536 76 326 0.0 0.0 0.00 0.00 0.00 95 1016.2
20260901102035 76 326 0.0 0.0 0.00 0.00 0.00 95 1016.1
20260901101536 76 326 0.0 0.0 0.00 0.00 0.00 95 1016.2
20260901101033 76 326 0.0 0.0 0.00 0.00 0.00 95 1016.1
20260901100535 76 326 0.0 0.0 0.00 0.00 0.00 95 1016.1
20260901100036 76 326 0.0 0.0 0.00 0.00 0.00 95 1016.1
20260901095530 76 323 0.0 0.0 0.00 0.00 0.00 95 1016.1
20260901095031 76 323 0.0 0.0 0.00 0.00 0.00 95 1016.1
20260901094533 76 323 0.0 0.0 0.00 0.00 0.00 95 1016.0
20260901094030 76 323 0.0 0.0 0.00 0.00 0.00 95 1016.1
20260901093534 76 323 0.0 0.0 0.00 0.00 0.00 95 1016.0
20260901093129 76 323 0.0 0.0 0.00 0.00 0.00 95 1016.0
20260901092531 76 323 0.0 0.0 0.00 0.00 0.00 94 1016.0
20260901092026 76 323 0.0 0.0 0.00 0.00 0.00 94 1016.1
20260901091526 76 323 0.0 0.0 0.00 0.00 0.00 94 1015.9
20260901091024 76 323 0.0 0.0 0.00 0.00 0.00 94 1016.0
20260901090526 76 323 0.0 0.0 0.00 0.00 0.00 94 1015.9
20260901090022 76 323 0.0 0.0 0.00 0.00 0.00 94 1016.0
20260901085622 76 323 0.0 0.0 0.00 0.00 0.00 94 1015.9
20260901085021 76 323 0.0 0.0 0.00 0.00 0.00 94 1015.9
20260901084521 76 323 0.0 0.0 0.00 0.00 0.00 94 1015.9
20260901084021 76 323 0.0 0.0 0.00 0.00 0.00 94 1016.0
20260901083520 76 323 0.0 0.0 0.00 0.00 0.00 94 1015.9
20260901083024 76 323 0.0 0.0 0.00 0.00 0.00 94 1015.8
20260901082519 76 323 0.0 0.0 0.00 0.00 0.00 94 1015.9
20260901082019 76 323 0.0 0.0 0.00 0.00 0.00 94 1015.9
20260901081521 76 323 0.0 0.0 0.00 0.00 0.00 94 1015.8
20260901081017 76 323 0.0 0.0 0.00 0.00 0.00 94 1015.8
20260901080517 76 323 0.0 0.0 0.00 0.00 0.00 94 1015.9
20260901080016 76 323 0.0 0.0 0.00 0.00 0.00 94 1015.8
20260901075516 76 323 0.0 0.0 0.00 0.00 0.00 94 1015.9
20260901075015 76 323 0.0 0.0 0.00 0.00 0.00 94 1016.0
20260901074515 76 323 0.0 0.0 0.00 0.00 0.00 94 1015.9
20260901074012 76 323 0.0 0.0 0.00 0.00 0.00 94 1016.0
20260901073514 76 323 0.0 0.0 0.00 0.00 0.00 94 1016.1
20260901073012 76 323 0.0 0.0 0.00 0.00 0.00 94 1016.2
20260901072509 76 323 0.0 0.0 0.00 0.00 0.00 94 1016.2
20260901072013 76 323 0.0 0.0 0.00 0.00 0.00 94 1016.3
20260901071513 76 323 0.0 0.0 0.00 0.00 0.00 94 1016.3
20260901071006 76 323 0.0 0.0 0.00 0.00 0.00 94 1016.5
20260901070506 76 323 0.0 0.0 0.00 0.00 0.00 94 1016.5
20260901070005 76 323 0.0 0.0 0.00 0.00 0.00 94 1016.5
20260901065505 76 323 0.0 0.0 0.00 0.00 0.00 94 1016.6
20260901065007 76 323 0.0 0.0 0.00 0.00 0.00 94 1016.7
20260901064503 76 323 0.0 0.0 0.00 0.00 0.00 94 1016.6
20260901064003 76 323 0.0 0.0 0.00 0.00 0.00 94 1016.6
20260901063502 76 323 0.0 0.0 0.00 0.00 0.00 94 1016.6
20260901063001 76 323 0.0 0.0 0.00 0.00 0.00 94 1016.7
20260901062559 76 323 0.0 0.0 0.00 0.00 0.00 94 1016.7
20260901062058 76 323 0.0 0.0 0.00 0.00 0.00 94 1016.7
20260901061602 76 323 0.0 0.0 0.00 0.00 0.00 94 1016.8
20260901061056 76 323 0.0 0.0 0.00 0.00 0.00 94 1016.8
20260901060558 76 323 0.0 0.0 0.00 0.00 0.00 94 1016.8
20260901060055 76 323 0.0 0.0 0.00 0.00 0.00 94 1016.9
20260901055554 76 323 0.0 0.0 0.00 0.00 0.00 93 1017.0
20260901055052 76 323 0.0 0.0 0.00 0.00 0.00 93 1017.0
20260901054553 76 323 0.0 0.0 0.00 0.00 0.00 94 1017.1
20260901054051 76 323 0.0 0.0 0.00 0.00 0.00 93 1017.1
20260901053551 76 323 0.0 0.0 0.00 0.00 0.00 93 1017.0
20260901053103 77 323 0.0 0.0 0.00 0.00 0.00 93 1017.0
20260901052547 77 323 0.0 0.0 0.00 0.00 0.00 93 1017.1
20260901052050 77 323 0.0 0.0 0.00 0.00 0.00 93 1017.1
20260901051549 77 323 0.0 0.0 0.00 0.00 0.00 93 1017.1
20260901051047 77 323 0.0 0.0 0.00 0.00 0.00 93 1017.1
20260901050547 77 323 0.0 0.0 0.00 0.00 0.00 93 1017.0
20260901050043 77 323 0.0 0.0 0.00 0.00 0.00 93 1017.1
20260901045544 77 323 0.0 0.0 0.00 0.00 0.00 93 1017.2
20260901045042 77 323 0.0 0.0 0.00 0.00 0.00 93 1017.3
20260901044554 77 323 0.0 0.0 0.00 0.00 0.00 93 1017.2
20260901044043 77 323 0.0 0.0 0.00 0.00 0.00 93 1017.2
20260901043540 77 323 0.0 0.0 0.00 0.00 0.00 93 1017.3
20260901043039 77 323 0.0 0.0 0.00 0.00 0.00 93 1017.2
20260901042538 77 323 0.0 0.0 0.00 0.00 0.00 93 1017.3
20260901042036 77 323 0.0 0.0 0.00 0.00 0.00 93 1017.3
20260901041536 77 323 0.0 0.0 0.00 0.00 0.00 93 1017.4
20260901041036 77 323 0.0 0.0 0.00 0.00 0.00 93 1017.4
20260901040534 78 323 0.0 0.0 0.00 0.00 0.00 93 1017.5
20260901040037 78 323 0.0 0.0 0.00 0.00 0.00 93 1017.5
20260901035532 78 323 0.0 0.0 0.00 0.00 0.00 93 1017.5
20260901035034 77 323 0.0 0.0 0.00 0.00 0.00 93 1017.5
20260901034530 77 323 0.0 0.0 0.00 0.00 0.00 92 1017.4
20260901034030 77 323 0.0 0.0 0.00 0.00 0.00 92 1017.5
20260901033529 78 323 0.0 0.0 0.00 0.00 0.00 92 1017.5
20260901033029 78 323 0.0 0.0 0.00 0.00 0.00 92 1017.6
20260901032529 78 323 0.0 0.0 0.00 0.00 0.00 92 1017.6
20260901032028 78 323 0.0 0.0 0.00 0.00 0.00 92 1017.6
20260901031526 78 323 0.0 0.0 0.00 0.00 0.00 92 1017.5
20260901031025 78 323 0.0 0.0 0.00 0.00 0.00 92 1017.6
20260901030525 78 323 0.0 0.0 0.00 0.00 0.00 92 1017.6
20260901030024 78 323 0.0 0.0 0.00 0.00 0.00 92 1017.7
20260901025525 78 323 0.0 0.0 0.00 0.00 0.00 92 1017.7
20260901025023 78 323 0.0 0.0 0.00 0.00 0.00 92 1017.7
20260901024528 78 323 0.0 0.0 0.00 0.00 0.00 91 1017.7
20260901024024 78 323 0.0 0.0 0.00 0.00 0.00 91 1017.7
20260901023521 78 323 0.0 0.0 0.00 0.00 0.00 91 1017.7
20260901023022 78 323 0.0 0.0 0.00 0.00 0.00 91 1017.7
20260901022520 78 323 0.0 0.0 0.00 0.00 0.00 91 1017.7
20260901022020 79 323 0.0 0.0 0.00 0.00 0.00 91 1017.7
20260901021519 79 323 0.0 0.0 0.00 0.00 0.00 90 1017.6
20260901021019 79 323 0.0 0.0 0.00 0.00 0.00 91 1017.7
20260901020518 79 323 0.0 0.0 0.00 0.00 0.00 90 1017.6
20260901020018 79 323 0.0 0.0 0.00 0.00 0.00 90 1017.6
20260901015517 79 323 0.0 0.0 0.00 0.00 0.00 90 1017.7
20260901015018 79 323 0.0 0.0 0.00 0.00 0.00 90 1017.7
20260901014517 79 323 0.0 0.0 0.00 0.00 0.00 90 1017.6
20260901014015 79 323 0.0 0.0 0.00 0.00 0.00 90 1017.5
20260901013515 79 323 0.0 0.0 0.00 0.00 0.00 90 1017.3
20260901013020 79 323 0.0 0.0 0.00 0.00 0.00 89 1017.4
20260901012521 79 323 0.0 0.0 0.00 0.00 0.00 89 1017.3
20260901012016 80 323 0.0 0.0 0.00 0.00 0.00 89 1017.3
20260901011513 80 323 0.0 0.0 0.00 0.00 0.00 89 1017.2
20260901011012 80 323 0.0 0.0 0.00 0.00 0.00 88 1017.1
20260901010511 80 323 0.0 0.0 0.00 0.00 0.00 88 1017.1
20260901010013 80 355 0.0 1.0 0.00 0.00 0.00 88 1017.0
20260901005511 80 355 0.0 2.0 0.00 0.00 0.00 88 1016.9
20260901005011 80 360 0.0 2.0 0.00 0.00 0.00 88 1016.9
20260901004528 80 304 0.0 0.0 0.00 0.00 0.00 87 1017.0
20260901004010 80 304 0.0 0.0 0.00 0.00 0.00 87 1017.0
20260901003511 80 304 0.0 0.0 0.00 0.00 0.00 87 1017.1
20260901003011 80 304 0.0 0.0 0.00 0.00 0.00 86 1017.1
20260901002509 80 304 0.0 0.0 0.00 0.00 0.00 86 1017.0
20260901002009 80 304 0.0 0.0 0.00 0.00 0.00 86 1017.0
20260901001519 80 304 0.0 0.0 0.00 0.00 0.00 86 1016.9
20260901001009 81 304 0.0 1.0 0.00 0.00 0.00 86 1016.8
20260901000508 81 304 0.0 1.0 0.00 0.00 0.00 85 1016.8
20260901000012 81 209 0.0 1.0 0.00 0.00 0.00 85 1016.8
20260831235505 81 195 0.0 1.0 0.00 0.00 0.00 85 1016.7
20260831235007 81 319 0.0 1.0 0.00 0.00 0.00 85 1016.7
20260831234505 82 319 0.0 2.0 0.00 0.00 0.00 85 1016.8